Flag for United Kingdom Weather past 2 weeks in Stoke-on-Trent, England, United Kingdom

50 °F

Drizzle. Broken clouds.

Feels Like: 44 °F
Forecast: 38 / 54 °F
Wind: 16 mph from Southwest

Location: Manchester Airport

Current Time: Nov 30, 2015 at 11:58:49 AM

Latest Report: Nov 30, 2015 at 11:20 AM

Visibility: 3 mi

Pressure: 29.68 "Hg

Humidity: 94%

Dew point: 48 °F

Location of Stoke-on-TrentLocation

Historic Weather in Stoke-on-Trent — Graph


Stoke-on-Trent temperature yesterday

Maximum temperature yesterday: 55 °F (at 1:20 PM)
Minimum temperature yesterday: 41 °F (at 10:50 PM)
Average temperature yesterday: 47 °F

Past Weeks' High & Low Weather Summary

High59 °F (Nov 15, 10:20 AM)100% (Nov 16, 10:50 PM)30.24 "Hg (Nov 16, 10:50 PM)
Low28 °F (Nov 21, 7:50 PM)48% (Nov 21, 2:20 PM)29.27 "Hg (Nov 17, 2:20 PM)
Average45 °F85%29.78 "Hg
* Reported Nov 15 10:20 AM — Nov 30 10:20 AM, Stoke-on-Trent, Weather by CustomWeather, © 2015

Note: Actual official high and low records may vary slightly from our data, if they occured in-between our weather recording intervals... More about our weather records


Stoke-on-Trent weather history for previous 24 hours

Time TempWeatherWind HumidityBarometerVisibility
10:20 AM
Mon, Nov 30
46 °FDrizzle. Partly sunny.15 mph100%29.71 "Hg3 mi
9:50 AM46 °FLight rain. Broken clouds.13 mph93%29.74 "Hg6 mi
9:20 AM45 °FLight rain. Broken clouds.12 mph100%29.77 "Hg6 mi
8:50 AM43 °FLight rain. Broken clouds.10 mph93%29.77 "Hg5 mi
8:20 AM41 °FDrizzle. Broken clouds.7 mph93%29.80 "Hg5 mi
6:50 AM41 °FLight rain. Passing clouds.10 mph93%29.86 "Hg6 mi
6:20 AM39 °FLight rain. Passing clouds.8 mph93%29.86 "Hg6 mi
5:50 AM41 °FLight rain. Mostly cloudy.8 mph87%29.89 "HgN/A
5:20 AM41 °FSprinkles. Passing clouds.9 mph81%29.92 "HgN/A
4:50 AM41 °FRain showers. Passing clouds.13 mph81%29.92 "HgN/A
4:20 AM41 °FClear.14 mph76%29.95 "Hg10 mi
3:20 AM41 °FClear.10 mph70%29.95 "Hg10 mi
2:50 AM39 °FClear.9 mph70%29.95 "Hg10 mi
2:20 AM39 °FChilly.12 mph70%29.95 "HgN/A
12:50 AM39 °FClear.13 mph75%29.95 "Hg10 mi
12:20 AM39 °FClear.12 mph75%29.95 "Hg10 mi
11:50 PM
Sun, Nov 29
41 °FClear.12 mph61%29.92 "Hg10 mi
10:50 PM41 °FPassing clouds.15 mph66%29.92 "HgN/A
10:20 PM43 °FPassing clouds.17 mph61%29.89 "HgN/A
9:50 PM43 °FPassing clouds.25 mph66%29.86 "HgN/A
9:20 PM43 °FSprinkles. Passing clouds.22 mph76%29.83 "HgN/A
8:50 PM45 °FPassing clouds.26 mph71%29.80 "HgN/A
8:20 PM45 °FPassing clouds.26 mph66%29.80 "HgN/A
7:50 PM45 °FPassing clouds.25 mph66%29.77 "HgN/A
7:20 PM45 °FPassing clouds.22 mph71%29.74 "HgN/A
6:50 PM45 °FSprinkles. Passing clouds.21 mph76%29.74 "HgN/A
6:20 PM48 °FPassing clouds.25 mph66%29.68 "HgN/A
5:50 PM48 °FPassing clouds.29 mph62%29.65 "HgN/A
5:20 PM48 °FPassing clouds.28 mph66%29.65 "HgN/A
4:50 PM48 °FScattered showers. Passing clouds.26 mph71%29.62 "HgN/A
4:20 PM48 °FRain showers. Passing clouds.31 mph66%29.59 "HgN/A
3:50 PM48 °FPassing clouds.26 mph66%29.56 "HgN/A
3:20 PM50 °FScattered showers. Partly sunny.33 mph67%29.56 "HgN/A
2:50 PM50 °FRain showers. Partly sunny.33 mph71%29.53 "HgN/A
2:20 PM50 °FRain showers. Partly sunny.35 mph76%29.50 "HgN/A
1:50 PM54 °FRain showers. Partly sunny.36 mph72%29.47 "HgN/A
1:20 PM55 °FScattered showers. Partly sunny.36 mph63%29.45 "HgN/A
12:50 PM54 °FScattered showers. Partly sunny.35 mph72%29.45 "HgN/A
12:20 PM54 °FScattered showers. Partly sunny.35 mph72%29.45 "HgN/A
11:50 AM52 °FSprinkles. Partly sunny.30 mph77%29.45 "HgN/A
11:20 AM52 °FSprinkles. Partly sunny.31 mph77%29.47 "HgN/A
Weather by CustomWeather, © 2015

See weather overviewHow to use our weather pages